Wind_Speed
6 4 6 8 11 13 14 13 12 11 11 14 15 14 14 13 11 12 18 20 20 23 19 13 17 23 26 25 25 26 26 27 27 27 28 28 28 27 26 26 25 26 27 29 31 32 33 34 34 34 33 33 32 32 31 30 30 29 29 29 30 30 30 31 31 32 33 33 33 33 34 34 35 35 35 36 36 36 37 37 38 38 39 39 40 41
4 5 10 12 12 11 12 12 12 12 13 15 15 14 12 11 15 17 17 20 24 26 20 14 17 22 26 25 24 24 23 24 25 25 27 26 26 26 25 25 24 25 26 27 29 30 31 31 31 30 30 29 29 28 28 27 27 27 28 29 29 30 31 31 32 32 33 33 34 34 34 35 36 37 37 38 38 38 39 40 41 42 42 43 44 44
6 10 13 12 11 10 12 13 14 14 14 13 14 13 11 14 20 18 18 25 27 26 20 13 12 19 27 26 21 19 19 21 22 23 25 24 25 25 24 24 23 24 24 25 26 27 27 28 28 27 26 26 25 25 25 26 26 27 28 29 29 30 31 31 32 33 33 34 34 35 36 36 37 38 39 40 40 41 42 43 44 45 46 47 47 48
9 14 14 11 12 13 14 15 15 14 12 11 14 16 16 20 22 19 23 27 25 22 16 12 12 16 22 20 15 16 19 20 21 21 23 24 24 24 24 24 24 24 24 23 24 24 24 25 25 24 24 23 24 24 25 26 27 27 28 29 30 30 31 32 32 33 34 35 35 36 37 38 39 40 41 41 42 43 44 45 46 47 48 49 49 50
15 15 13 13 15 15 15 16 17 17 14 11 15 19 22 24 22 20 25 26 23 15 9 15 14 9 9 13 13 16 18 19 20 21 22 23 23 24 24 24 24 24 23 22 22 22 22 22 23 23 23 23 24 24 25 26 27 27 28 29 30 31 32 33 33 34 35 36 37 37 38 39 39 40 41 42 42 43 44 44 45 46 46 47 48 48
16 15 14 15 16 16 17 19 20 21 17 10 14 21 22 22 22 21 22 22 19 9 7 15 10 2 3 10 13 16 17 18 20 21 22 22 23 24 24 24 24 23 22 22 21 21 22 22 23 23 23 24 24 25 25 26 27 27 28 29 30 31 32 33 34 35 36 37 38 39 40 40 41 41 42 42 42 42 43 43 43 44 44 45 45 45
17 15 15 15 16 17 19 20 20 21 17 9 15 22 21 19 20 20 18 15 11 8 8 11 9 5 4 5 11 14 15 19 21 21 23 23 24 24 24 24 23 23 22 21 21 22 22 23 23 24 24 24 24 24 25 25 26 27 28 30 31 32 34 35 37 38 40 41 42 43 44 44 45 45 45 45 45 45 44 44 44 44 44 44 45 45
15 15 15 15 17 20 21 20 20 21 17 12 19 24 20 18 17 16 14 10 9 8 4 10 14 13 6 6 15 13 10 18 24 25 26 26 25 24 24 24 23 23 22 21 22 22 23 23 23 23 23 23 23 24 25 26 27 28 30 32 33 35 37 39 41 43 45 46 47 48 48 49 49 49 49 48 48 47 47 46 46 45 45 45 45 45
13 15 15 16 19 21 20 18 19 20 19 17 21 23 19 16 14 13 12 10 9 4 2 12 21 15 6 8 13 10 6 12 21 28 29 29 28 25 25 24 23 23 22 23 23 23 23 22 22 22 22 23 24 25 27 29 31 33 35 37 38 40 42 44 46 48 49 50 51 52 52 52 52 52 51 51 50 49 48 47 47 46 45 45 45 46
13 15 16 19 22 21 18 18 20 22 23 23 24 25 20 15 14 12 9 9 8 2 3 15 21 13 5 4 5 7 10 14 21 28 32 31 30 28 27 25 24 24 24 24 24 23 22 21 21 22 23 25 27 29 32 34 36 39 41 43 44 46 48 50 51 52 53 54 54 55 55 54 54 53 52 51 50 50 48 47 47 46 45 45 45 45
12 16 18 21 22 20 18 19 23 24 25 25 24 25 16 10 13 9 6 10 8 2 5 14 20 15 6 2 8 16 21 23 26 29 33 33 32 30 28 26 25 26 25 25 23 22 21 21 23 24 27 30 33 35 38 40 43 46 47 48 50 53 54 55 56 57 57 57 57 56 56 55 54 53 52 51 50 49 47 46 45 44 44 44 43 43
11 18 22 21 19 20 18 18 21 22 25 26 24 24 14 7 10 7 5 10 7 3 8 15 20 14 5 5 15 24 27 29 31 31 31 31 29 29 28 27 27 27 26 24 23 21 21 23 26 29 33 36 38 41 44 46 49 52 53 54 56 58 59 59 59 59 58 57 57 56 55 54 52 51 50 48 47 46 45 44 43 42 41 41 41 41
8 17 23 21 18 22 21 20 20 17 22 27 24 23 15 6 8 6 5 8 5 5 11 15 14 9 6 11 20 26 29 30 30 28 27 27 26 26 26 27 28 28 27 25 23 23 23 27 31 35 39 41 44 47 49 52 54 56 57 59 59 60 60 60 59 58 57 55 54 53 52 50 49 47 47 45 44 43 42 41 41 40 39 39 39 40
5 10 19 20 18 21 23 23 22 16 18 24 21 17 12 6 6 5 5 6 5 8 13 12 8 6 8 15 23 27 29 28 26 25 25 25 25 24 24 25 27 28 29 28 27 26 28 32 37 40 44 47 50 52 53 55 56 57 58 58 58 58 57 57 56 55 55 53 51 50 48 47 45 44 43 42 41 40 39 39 38 38 38 38 39 39
4 6 15 18 15 18 21 21 20 14 11 16 17 13 9 7 5 5 6 7 7 12 13 7 5 5 8 16 24 27 26 23 22 23 24 23 23 23 24 24 25 28 30 31 31 32 34 37 41 45 48 50 51 53 53 54 54 54 54 54 54 54 54 54 53 53 52 51 49 47 46 44 43 42 41 40 39 39 38 38 38 38 38 39 39 40
4 5 15 15 11 15 18 18 19 15 8 11 17 13 8 8 6 7 10 9 11 13 9 4 6 9 13 20 23 23 23 23 23 24 23 24 26 25 25 25 25 27 29 31 32 34 37 40 44 47 48 49 50 50 51 51 51 51 51 52 52 51 52 51 51 50 49 47 46 44 43 42 40 40 39 39 38 38 38 38 38 39 39 40 40 41
2 4 14 14 10 13 15 15 19 18 12 10 14 13 8 7 6 8 10 10 12 10 6 6 9 12 15 18 19 22 25 26 25 25 26 28 29 28 27 27 27 28 29 31 33 36 40 44 46 47 47 48 48 49 50 50 51 51 51 52 52 51 51 50 49 48 46 44 42 41 39 39 38 37 37 38 38 38 38 38 39 40 40 41 41 42
2 0 9 12 7 9 14 15 17 19 17 11 11 14 10 5 5 6 7 8 8 6 7 10 12 13 13 12 18 25 26 26 27 27 30 32 32 32 31 30 30 30 32 35 37 40 44 47 47 47 47 47 47 48 49 49 50 50 51 51 52 52 51 50 49 47 45 42 40 39 38 37 37 36 37 37 37 38 38 38 39 40 41 41 42 43
5 2 5 10 7 6 13 15 13 15 17 15 13 16 12 3 4 7 6 7 6 5 8 9 10 14 13 11 18 24 25 27 28 29 33 36 36 36 35 32 32 32 34 37 41 44 48 50 50 49 49 49 50 50 50 50 50 50 50 50 50 49 49 49 48 46 44 43 40 39 38 37 37 37 37 37 38 38 38 39 39 40 41 42 43 43
8 2 3 9 9 8 9 11 10 12 16 16 13 14 13 6 5 8 4 4 6 6 7 7 8 10 11 15 21 24 24 26 27 32 38 39 39 39 37 35 33 33 35 39 43 47 50 50 50 51 52 51 52 52 51 51 51 50 50 49 49 47 46 46 45 45 44 43 42 40 39 38 37 37 37 37 38 38 39 40 40 41 42 42 43 43
10 6 3 7 10 8 6 8 9 11 14 15 13 13 14 9 4 7 5 5 6 6 6 7 9 12 16 22 27 26 25 27 30 37 40 39 40 40 37 37 36 36 37 39 43 47 50 51 49 50 52 52 52 52 52 51 51 51 50 49 49 47 46 44 42 42 42 41 41 40 39 39 38 38 38 38 39 40 40 41 41 42 42 42 43 43
9 6 3 5 6 5 7 9 9 10 12 12 12 11 12 9 5 6 5 4 5 7 9 9 9 18 27 28 28 27 28 32 37 41 41 39 39 38 38 39 39 40 41 42 44 46 50 52 51 50 51 53 53 53 52 52 51 51 50 49 49 48 46 44 42 40 40 39 39 38 38 39 39 39 40 40 41 41 42 42 42 43 43 43 43 43
9 9 4 3 5 7 9 10 9 10 12 11 11 12 11 8 5 5 5 7 10 12 15 13 12 22 32 29 26 29 32 36 40 41 40 39 39 39 40 40 41 42 43 43 46 48 50 53 53 52 51 52 53 53 52 53 52 51 51 50 49 47 45 44 42 40 38 38 37 37 38 38 39 40 40 40 41 41 42 43 43 43 43 43 43 43
9 10 6 5 7 9 10 11 10 13 16 12 12 14 13 9 8 9 10 12 13 14 15 12 11 19 27 26 28 33 37 40 42 42 42 43 43 44 43 43 43 44 44 44 46 48 51 53 54 54 52 52 53 53 53 52 52 51 50 49 47 46 44 42 40 39 38 38 38 38 39 39 39 40 40 40 41 41 42 42 42 43 43 43 43 43
8 9 8 5 6 7 8 9 8 11 14 12 15 18 16 14 13 11 10 9 10 13 13 9 11 21 29 32 36 39 41 43 43 43 45 44 45 46 46 47 45 44 45 45 46 48 50 52 54 55 54 53 53 53 53 52 51 49 48 47 45 43 42 40 38 38 38 38 39 39 39 39 40 40 40 41 41 41 41 41 42 42 42 43 43 43
7 8 7 4 5 5 5 7 8 12 14 15 19 21 18 17 16 13 10 9 10 12 12 14 22 34 40 39 41 42 42 42 42 42 43 43 44 46 46 46 44 44 45 46 46 48 49 51 53 54 55 54 53 53 53 51 50 48 46 44 42 41 40 38 38 38 38 38 39 39 39 39 40 40 40 41 41 41 41 41 41 42 42 42 43 43
7 8 8 5 6 7 9 10 12 16 18 19 21 21 21 20 19 18 14 13 15 16 20 26 31 37 44 44 42 43 42 41 42 43 43 44 47 48 46 43 42 43 45 46 46 47 48 50 52 53 54 54 53 52 52 51 48 46 44 42 40 40 39 39 39 38 38 39 38 39 39 39 40 40 40 40 41 41 41 41 41 41 42 42 42 43
7 9 9 9 9 11 12 13 15 17 19 21 22 21 22 21 22 23 21 20 20 17 23 33 30 32 44 47 42 42 42 42 45 45 45 47 50 49 46 44 43 44 46 47 47 48 49 50 51 53 54 54 53 52 51 50 48 45 42 40 39 39 39 39 40 40 39 39 39 39 40 40 40 40 40 40 40 40 40 40 41 41 41 42 42 42
8 8 10 13 13 12 15 15 16 18 21 24 24 22 22 22 25 27 26 27 24 22 29 39 36 38 47 46 41 41 42 44 47 47 47 50 51 49 47 46 45 46 47 48 49 50 50 50 50 52 54 54 53 52 50 49 47 44 42 40 39 39 39 40 40 40 40 40 40 40 41 41 41 40 40 40 40 40 40 40 40 41 41 41 42 42
9 10 13 16 16 14 14 15 18 21 24 26 26 23 22 22 24 27 29 29 29 32 38 41 41 45 46 43 42 43 44 47 50 51 52 53 51 48 48 50 49 49 49 49 49 50 50 51 52 52 54 54 53 51 50 48 45 43 41 40 39 39 40 41 41 40 40 40 40 41 41 41 41 41 41 41 41 40 40 40 41 41 41 42 42 42
10 12 15 17 20 18 15 18 22 23 27 29 26 22 20 21 22 25 28 30 30 36 39 38 42 47 45 41 41 42 44 48 51 54 54 52 49 45 45 51 52 51 50 49 50 51 51 51 52 53 54 54 52 51 49 47 44 43 41 40 40 40 41 41 41 41 40 40 40 41 41 41 41 40 40 40 40 40 40 40 41 41 41 41 41 41
12 14 16 18 21 19 17 21 24 25 29 29 22 17 18 21 22 24 27 30 31 35 37 37 43 47 45 41 41 42 43 46 51 54 49 45 48 49 49 53 53 51 51 51 51 52 52 52 52 52 53 52 51 50 48 46 44 42 41 41 40 41 41 41 41 41 41 41 41 41 41 41 41 40 40 40 40 40 40 40 40 41 41 41 41 41
14 16 18 18 16 17 19 22 26 26 22 16 16 22 24 22 24 26 29 33 35 35 36 40 44 46 44 42 44 47 49 50 54 55 47 45 53 56 54 54 53 52 53 53 53 53 52 53 52 52 52 51 50 49 47 45 44 42 42 41 41 41 42 42 42 41 41 41 41 41 41 41 41 40 40 40 40 39 39 40 40 40 41 41 41 41
15 17 20 17 15 18 23 25 24 16 9 12 24 28 24 21 24 27 32 38 38 36 39 44 47 45 43 43 45 51 55 55 57 57 52 51 57 57 56 55 54 55 55 55 55 55 53 53 53 52 52 51 49 48 46 45 44 43 42 41 41 42 42 42 42 41 41 41 41 41 41 41 41 40 40 40 40 40 39 40 40 40 41 41 41 41
17 19 20 20 19 22 24 21 12 6 12 25 30 24 21 25 29 32 39 44 41 40 43 45 45 43 43 45 49 54 57 57 58 60 59 57 57 57 57 57 56 57 57 56 55 54 53 53 53 53 52 51 49 47 46 45 45 44 43 42 42 42 42 42 42 41 42 41 41 41 41 41 41 40 40 40 40 39 39 40 40 40 41 41 41 41
19 19 20 22 21 19 16 9 6 16 30 32 24 20 26 31 34 39 47 50 47 46 45 42 42 45 46 49 54 56 59 59 59 59 60 59 59 58 58 58 57 57 57 56 55 54 53 52 52 52 51 49 48 47 46 46 45 45 44 43 42 42 42 42 42 41 42 41 41 41 41 41 41 40 39 39 39 39 39 39 40 40 41 42 41 42
18 18 20 20 17 16 15 14 20 28 30 25 21 25 30 33 36 40 46 52 50 44 41 41 45 50 52 54 57 57 58 62 62 59 59 60 60 60 60 60 59 59 59 58 57 57 55 52 51 52 50 48 47 46 46 46 46 45 44 43 42 43 42 42 42 42 41 41 41 41 40 40 40 40 39 39 39 39 39 39 40 40 41 42 42 42
18 19 19 16 16 18 17 17 18 16 14 19 26 30 32 35 38 38 43 52 51 43 44 50 52 55 56 56 57 56 57 61 63 61 60 62 62 62 62 61 60 61 62 62 60 60 58 55 52 51 50 47 45 45 45 46 46 45 44 42 42 43 42 42 42 42 41 40 40 41 40 40 40 39 39 39 39 39 39 39 40 41 42 42 42 43
18 20 20 19 20 21 16 12 9 9 16 28 32 31 32 37 42 40 38 43 47 46 51 56 56 56 57 56 57 57 56 60 64 63 62 62 63 63 62 62 60 61 62 63 62 62 60 57 54 52 50 46 44 44 44 45 45 44 43 42 42 42 42 42 42 41 40 40 40 40 40 40 40 39 39 38 38 39 39 39 40 41 42 43 43 43
20 21 21 21 22 22 19 16 15 17 26 32 29 29 35 41 44 33 21 28 45 52 54 57 57 56 57 57 57 57 56 58 63 65 63 62 63 62 61 61 61 61 62 62 62 62 61 59 55 52 49 45 43 43 43 44 44 44 42 41 41 42 42 42 42 41 40 40 40 40 40 40 39 39 38 38 38 38 39 39 40 41 42 42 43 43
23 21 21 22 22 21 20 20 23 28 31 29 27 33 39 41 37 26 20 34 51 53 52 56 58 57 57 57 57 59 58 58 60 64 65 63 62 62 61 61 61 61 62 62 61 60 60 58 54 51 48 44 42 42 42 43 43 43 42 41 41 41 42 42 41 40 39 39 39 39 39 39 39 38 38 37 38 38 38 39 40 40 42 42 43 43
20 18 18 21 21 20 20 21 25 27 28 29 33 39 40 37 34 33 38 47 50 49 50 53 55 57 58 57 57 58 60 60 60 63 64 63 63 63 62 62 61 61 60 61 61 59 58 57 54 50 46 43 41 41 41 42 42 42 41 40 40 41 42 41 40 39 39 38 38 38 39 38 38 38 37 37 37 38 38 38 39 40 41 41 42 43
21 19 18 20 19 17 16 16 16 20 28 35 38 39 39 40 41 44 49 52 50 51 52 51 53 56 56 57 59 59 60 61 61 62 63 63 63 62 62 61 62 61 60 60 59 58 56 55 53 49 45 42 40 40 41 41 41 41 40 40 40 41 42 40 39 39 38 37 37 37 38 38 37 37 36 36 37 38 38 38 39 39 40 40 41 42
23 22 20 21 21 16 14 17 20 26 34 39 39 40 43 45 46 46 48 51 53 53 52 52 54 54 54 58 60 60 61 62 62 62 63 62 62 62 62 62 61 61 61 60 58 55 52 51 50 46 43 41 39 39 40 40 40 40 39 39 40 41 41 40 39 38 37 36 36 36 37 37 36 36 36 36 37 37 38 38 38 39 39 39 40 42
25 27 27 28 29 27 27 30 33 34 35 39 44 47 48 47 47 48 49 52 54 53 52 54 56 55 56 59 59 60 62 61 61 62 62 62 62 62 62 61 60 60 60 60 58 54 50 48 47 44 41 39 38 38 39 38 38 39 39 39 40 41 41 40 39 38 36 36 36 36 36 36 35 35 35 35 36 37 37 37 38 38 38 38 39 41
32 33 33 33 34 35 36 37 38 37 38 42 48 51 50 50 50 51 51 53 55 55 54 55 56 57 58 59 59 61 61 60 62 62 61 62 62 61 61 61 60 60 60 60 58 55 50 47 45 42 40 38 37 37 37 37 37 38 38 39 40 40 40 39 38 37 35 35 35 35 35 35 34 34 34 34 35 36 36 37 37 37 37 37 38 40
37 36 35 36 36 37 38 39 40 40 42 46 50 52 52 52 52 52 52 53 53 54 55 55 56 58 58 59 60 61 61 61 62 63 62 62 62 62 62 61 60 60 60 59 57 55 51 46 43 41 39 37 36 36 36 36 36 37 38 39 39 39 39 38 37 35 34 34 34 34 34 34 34 33 33 34 34 34 35 36 36 37 37 36 37 38
39 38 38 38 37 38 40 40 41 42 45 48 51 53 52 52 52 53 53 53 54 55 56 56 57 58 58 59 59 60 61 61 61 62 63 62 62 62 61 60 60 60 58 57 55 52 49 45 41 40 38 36 35 35 35 35 35 36 38 38 38 38 38 37 35 34 33 33 33 33 33 33 33 33 33 33 33 33 34 35 35 36 36 35 36 37
38 38 36 35 36 39 39 39 41 47 52 51 50 50 51 51 52 53 53 54 55 56 57 57 57 58 58 58 59 60 61 62 61 61 62 61 61 61 59 58 58 57 56 54 51 48 45 43 40 39 37 35 35 35 34 35 35 36 37 38 38 37 37 35 34 33 33 32 33 32 32 32 32 32 32 32 32 33 33 33 34 35 35 34 35 36
36 35 33 33 36 38 37 37 39 46 53 54 51 49 49 50 52 54 54 55 56 57 58 58 59 59 59 59 59 60 61 62 61 61 61 61 60 59 58 57 56 55 54 53 49 45 43 42 40 38 36 34 34 34 34 34 35 35 36 37 37 36 35 35 34 33 32 31 31 31 32 32 32 32 32 32 32 33 33 32 32 33 34 34 34 34
32 31 29 30 35 36 35 37 41 47 53 55 52 49 49 50 51 53 54 55 56 57 58 59 60 61 61 60 60 60 61 61 61 60 60 59 58 57 57 57 56 55 53 50 47 44 42 40 39 37 35 34 33 33 34 34 34 35 36 36 36 35 34 33 33 32 31 30 30 31 31 31 31 31 31 32 32 33 34 33 32 31 31 32 33 33
Wind_Direction
344 351 12 8 354 351 350 349 350 348 342 345 350 343 335 325 325 329 319 319 326 332 335 318 308 305 302 306 305 304 304 304 304 303 303 303 302 301 297 292 286 279 273 268 265 261 259 257 255 254 252 252 251 251 252 252 254 254 255 255 255 255 256 256 256 256 256 256 258 261 263 266 268 270 271 272 273 274 274 274 275 275 275 275 275 276
349 10 18 9 359 351 350 355 356 353 351 357 357 342 336 336 328 322 318 322 328 334 334 320 312 304 302 308 309 310 313 313 314 313 313 313 309 306 301 294 287 279 273 267 264 261 259 257 256 255 254 254 253 253 253 252 253 253 253 254 254 255 254 254 255 255 256 258 261 264 266 269 271 272 273 273 274 274 275 275 275 276 276 277 277 277
2 23 28 16 10 7 6 7 356 355 2 359 355 349 343 335 330 325 323 325 329 331 327 320 314 297 296 306 312 323 330 326 323 321 318 316 311 308 303 296 289 281 275 269 265 262 260 258 257 256 255 254 252 251 251 250 250 251 253 253 254 254 254 254 256 258 260 263 266 268 271 273 275 276 277 277 277 277 278 278 278 278 279 279 279 279
35 36 35 24 21 21 13 2 352 4 11 345 348 357 342 333 334 328 322 327 332 329 323 329 316 286 291 307 322 332 336 334 329 324 320 317 315 311 305 298 290 284 278 273 268 265 262 259 257 255 253 251 250 250 250 250 251 252 252 253 253 254 255 257 260 263 267 269 272 274 277 278 280 281 281 281 282 282 282 282 281 282 281 282 282 282
56 43 28 24 24 23 13 359 357 9 8 333 337 347 337 334 337 330 325 331 336 328 330 342 319 263 284 316 327 331 335 340 334 329 327 323 319 314 306 300 293 288 282 276 272 267 263 259 256 253 250 249 249 249 250 251 252 253 253 255 257 259 262 265 268 271 274 277 279 280 282 283 284 285 286 286 287 287 286 286 286 285 285 285 285 285
55 37 23 28 26 18 9 3 3 6 6 339 328 341 341 337 336 332 332 333 336 336 350 351 335 242 327 320 323 331 337 344 337 333 333 328 322 315 306 300 292 285 280 274 270 266 262 258 255 252 250 250 250 251 253 254 256 258 261 264 267 270 272 274 278 281 284 286 287 287 288 289 289 290 290 291 291 291 291 290 290 289 289 288 288 288
46 31 25 30 22 13 8 7 5 3 8 355 337 346 344 339 337 336 338 335 335 334 342 9 11 334 325 329 336 338 338 343 340 336 335 329 323 315 306 299 289 281 275 270 266 262 259 257 255 254 253 253 255 257 260 263 267 271 274 277 280 282 284 286 288 291 293 294 295 295 295 295 295 295 296 295 295 295 294 293 293 292 291 290 290 289
37 26 22 21 16 12 10 12 8 6 13 354 343 349 346 345 348 349 357 349 325 318 334 32 12 332 312 5 358 359 353 341 334 332 333 327 321 314 305 298 287 278 272 266 263 260 258 258 257 258 259 261 264 269 273 278 282 286 288 290 292 294 295 295 296 297 298 299 299 300 300 300 300 299 299 299 298 297 296 295 294 293 292 291 290 288
29 20 17 15 19 20 19 21 14 11 12 352 346 356 354 352 356 359 10 355 322 323 19 15 3 338 327 21 15 22 18 337 325 324 326 324 319 313 305 297 285 275 269 264 263 261 260 261 262 266 271 276 281 285 289 292 294 296 297 298 298 299 300 301 301 301 302 301 302 302 302 302 302 301 301 300 300 299 298 297 295 293 292 290 289 288
35 24 18 18 25 26 24 22 15 12 8 358 359 3 354 349 357 1 11 349 319 329 25 1 359 347 339 26 6 332 327 325 320 318 321 322 320 316 309 299 285 275 269 265 264 264 266 268 273 280 285 290 294 296 298 299 299 301 302 302 301 302 303 303 303 303 304 303 303 303 303 302 302 301 301 300 299 298 297 296 294 293 291 289 288 286
40 24 21 25 28 26 25 16 9 10 9 6 8 6 350 340 354 348 355 351 329 357 25 355 349 336 314 309 309 316 325 328 324 320 321 322 322 320 313 299 286 276 270 266 266 269 275 280 286 290 294 297 298 300 301 300 301 304 304 302 303 303 304 304 304 304 304 304 303 303 302 302 301 300 300 299 298 297 296 294 293 291 289 288 286 285
24 19 22 27 27 27 28 16 7 9 13 16 18 15 7 355 356 339 342 358 347 4 359 343 338 327 292 297 316 320 323 324 322 321 321 322 324 323 315 302 289 279 272 268 270 275 281 288 293 297 299 301 301 302 302 302 303 304 303 302 303 304 304 304 304 303 303 303 302 301 301 300 300 299 298 297 296 295 294 292 291 289 288 287 286 285
359 11 19 22 22 25 22 17 16 13 15 21 23 18 16 12 2 353 351 354 344 340 337 332 334 327 295 302 313 316 318 318 319 321 324 325 327 326 318 307 295 283 275 271 272 276 283 292 297 300 301 301 301 302 302 302 303 302 302 302 302 302 302 302 302 302 301 301 301 301 301 300 299 298 297 296 295 294 292 291 290 289 288 287 286 285
330 348 12 19 20 21 18 16 17 13 15 19 17 12 15 17 357 349 350 344 328 327 328 324 326 325 306 306 315 319 317 317 319 324 329 332 335 335 328 318 307 296 286 278 276 278 286 293 296 298 299 299 300 300 300 300 301 300 300 301 301 301 301 301 301 301 301 302 302 302 301 300 299 297 296 295 294 293 292 291 290 289 288 287 286 285
33 345 7 18 22 19 20 19 17 21 24 13 10 15 24 25 2 329 335 330 314 318 317 312 315 312 301 309 316 316 313 315 319 324 331 335 338 335 329 322 313 303 294 287 283 283 287 292 295 297 298 298 299 299 299 300 300 300 300 301 301 301 301 301 301 302 302 303 302 302 301 299 298 297 296 295 294 293 292 291 290 289 289 288 287 286
92 22 4 15 28 23 23 23 21 32 39 8 12 20 18 16 354 306 310 305 298 305 309 321 310 289 293 307 314 315 314 316 319 323 328 331 331 326 321 317 310 302 295 290 287 287 290 295 298 300 300 300 301 301 301 301 301 302 302 302 303 303 303 303 303 303 303 303 301 300 299 298 297 296 295 295 294 293 292 292 291 290 289 289 288 287
115 15 2 7 24 24 27 32 31 34 34 12 13 13 2 9 353 309 308 309 301 297 308 333 313 294 301 309 313 317 317 315 316 320 324 326 326 322 317 314 307 302 297 293 292 291 293 299 302 303 303 302 303 303 303 303 304 304 304 305 305 305 305 305 305 305 303 302 300 299 298 297 296 295 295 294 293 293 292 292 291 291 290 290 289 289
82 222 353 360 11 16 21 32 34 33 34 33 22 12 2 357 351 323 310 319 318 301 307 314 304 300 301 299 308 314 314 313 313 315 320 323 323 319 316 311 306 301 296 294 295 293 296 303 306 305 304 304 304 305 305 305 305 305 305 305 305 305 306 306 306 305 303 302 301 300 299 298 297 296 295 295 294 293 293 292 292 292 291 291 290 290
71 183 326 357 12 13 18 26 25 20 27 35 27 18 18 4 325 330 315 313 318 304 308 307 298 298 287 277 304 314 313 311 310 312 317 319 318 316 315 311 306 300 296 294 295 296 300 306 308 308 308 309 309 309 309 308 308 307 306 305 305 304 304 304 303 303 303 303 303 302 301 299 298 298 296 296 295 294 294 293 293 293 292 292 292 292
55 62 318 352 10 16 16 23 23 11 16 25 23 18 24 24 317 324 321 295 304 305 304 301 297 302 291 287 304 314 313 309 309 313 315 315 315 314 313 312 308 301 296 294 295 299 304 308 309 309 309 310 310 310 310 309 309 308 307 306 306 304 303 301 301 301 302 302 303 302 301 300 299 298 298 297 296 296 295 295 294 294 294 294 293 293
46 44 325 336 4 13 357 6 22 15 10 14 12 5 10 18 340 310 282 257 290 301 300 305 295 294 297 299 304 309 310 309 311 313 313 313 313 312 313 312 310 305 301 297 297 301 305 308 308 309 309 309 310 310 310 309 308 308 308 307 306 305 304 303 301 300 299 299 300 300 300 300 300 299 299 298 298 297 297 297 296 296 296 295 295 295
41 36 333 324 353 344 330 346 5 9 6 5 1 351 353 6 355 315 285 258 281 277 277 291 287 292 302 307 307 307 308 309 311 311 311 312 312 311 312 311 309 307 305 304 304 305 307 308 307 309 309 309 310 310 310 309 309 308 308 307 306 305 305 304 303 301 299 298 298 298 299 299 299 299 299 299 299 299 298 298 298 298 297 297 297 296
34 26 1 303 325 332 338 346 346 347 349 349 348 344 344 350 335 309 300 299 300 283 274 272 267 288 303 308 305 305 308 310 310 310 311 313 313 314 314 313 310 309 309 308 308 309 309 308 308 309 310 310 310 310 310 309 309 308 307 306 306 306 305 304 303 301 300 299 299 299 299 299 298 298 298 298 299 299 299 299 299 298 298 298 297 297
29 20 357 279 296 318 322 327 330 332 334 331 326 329 331 324 310 298 293 294 289 276 276 277 262 278 296 303 302 304 309 312 313 314 318 319 319 319 318 317 314 312 311 311 310 310 309 309 309 310 311 310 310 309 309 308 308 307 306 306 305 304 303 302 301 300 299 299 299 299 299 299 298 298 299 299 299 299 299 299 299 299 298 298 298 298
33 16 0 311 308 320 311 319 327 325 326 314 301 307 313 314 311 303 297 289 270 263 269 271 271 286 299 304 306 310 315 317 316 317 320 320 319 318 317 316 315 313 312 311 310 310 309 308 310 310 311 310 309 309 309 308 307 307 305 304 303 302 301 300 299 298 298 298 298 299 298 298 298 299 299 299 299 299 299 299 299 299 299 299 298 298
28 17 9 336 328 341 324 320 312 307 311 303 299 305 307 306 304 300 294 278 267 273 270 259 275 298 310 311 310 315 318 315 313 313 315 315 314 315 314 312 312 310 309 310 310 309 308 308 308 309 309 309 309 308 308 307 306 305 304 302 301 299 298 298 298 298 298 298 298 298 298 298 298 298 299 299 299 299 299 299 299 298 299 299 299 299
13 7 4 332 309 309 303 306 304 303 306 305 306 306 300 296 295 290 279 266 272 280 280 281 286 299 312 317 316 317 316 310 310 312 314 312 311 313 312 309 307 307 307 309 309 308 307 307 307 307 307 308 308 307 306 305 305 303 302 300 298 298 297 297 297 298 298 298 297 297 297 298 298 298 298 298 298 298 298 299 299 299 300 301 301 301
350 345 347 332 316 306 302 308 308 305 308 309 307 303 298 293 286 280 276 278 283 274 282 300 303 295 305 317 319 317 314 310 312 314 314 312 311 312 314 312 310 309 310 310 309 307 307 306 306 306 306 306 306 306 305 304 303 302 301 299 297 296 296 296 297 297 297 297 297 297 297 297 298 298 298 298 298 298 299 299 300 301 302 302 303 303
336 324 328 326 324 314 306 311 312 307 310 311 306 302 298 290 284 285 289 291 283 266 282 305 308 297 305 319 321 316 313 311 314 315 313 313 314 314 316 315 313 311 310 309 308 307 307 306 305 305 305 305 305 304 304 303 302 301 300 298 297 295 295 296 296 296 296 296 297 297 298 298 298 299 299 299 299 300 301 301 302 303 303 304 304 305
327 322 326 323 322 318 310 314 317 312 312 311 306 302 295 289 286 289 296 298 285 276 290 304 302 302 316 326 321 315 314 313 315 316 316 317 316 313 314 316 315 313 311 309 308 307 306 306 306 305 304 304 303 303 302 301 300 299 299 298 297 296 296 296 296 296 296 296 297 297 298 298 299 300 300 300 301 302 302 303 303 304 304 305 306 306
323 324 327 322 321 323 322 323 322 318 315 311 306 301 293 288 290 292 298 301 289 287 301 304 296 304 323 328 317 312 312 312 315 316 316 316 314 310 312 315 316 314 312 309 307 306 306 306 306 304 303 303 303 302 301 300 299 298 298 298 297 297 297 297 297 297 296 297 297 297 298 298 299 299 300 300 300 301 302 303 303 304 304 305 306 306
326 324 326 325 321 320 319 321 323 321 312 303 301 310 305 294 297 301 303 304 299 299 305 300 294 308 324 322 312 309 309 310 313 314 312 311 313 314 315 316 316 314 312 310 309 308 307 306 305 302 302 302 302 301 300 299 298 297 297 297 297 297 297 297 297 296 297 297 297 298 298 298 299 299 299 300 300 301 301 302 303 303 304 305 306 306
328 326 326 325 316 309 310 317 323 321 309 296 307 321 317 305 302 303 306 311 311 305 301 298 304 317 323 318 313 314 314 313 313 312 309 310 315 318 318 318 316 313 312 311 310 309 307 306 304 302 301 301 300 299 298 297 297 296 296 297 297 297 297 297 297 297 297 297 297 298 298 298 299 300 300 300 300 301 302 302 303 304 305 306 307 307
325 325 324 320 309 305 310 318 322 316 296 307 318 318 314 310 307 303 308 316 315 306 304 309 315 321 321 317 316 315 315 315 313 312 312 313 317 319 319 318 316 314 313 312 310 308 306 304 303 302 302 301 300 300 298 297 296 296 296 297 297 297 297 297 297 297 297 297 297 298 298 298 299 300 300 300 301 301 302 303 304 305 305 306 307 307
321 321 319 317 309 306 315 326 328 296 302 316 319 318 318 319 317 312 313 317 318 315 314 315 317 319 319 317 315 314 314 314 312 313 315 317 318 319 318 317 316 313 312 310 308 306 305 304 303 302 302 301 301 300 299 297 297 296 297 298 297 298 297 297 297 297 297 297 297 298 298 298 299 300 300 300 300 301 302 303 304 304 305 306 306 307
314 315 315 315 310 306 313 319 287 301 317 323 323 323 323 321 322 320 317 319 323 322 319 317 318 320 318 316 315 315 314 312 312 314 317 318 318 318 317 316 313 311 309 308 307 306 306 305 304 302 302 301 301 300 298 296 296 296 297 298 298 298 298 297 297 297 297 297 297 297 298 298 299 299 299 299 300 300 301 302 303 303 304 305 305 306
305 307 310 311 306 302 301 292 293 306 319 326 325 324 324 321 323 321 315 318 325 325 319 319 320 319 317 316 315 314 312 311 313 317 319 318 318 318 316 315 313 311 310 310 310 309 308 307 305 302 301 301 299 298 296 295 295 296 297 298 298 298 298 297 297 297 297 298 298 297 297 298 298 298 299 299 299 300 300 301 302 302 303 304 305 305
299 299 304 301 293 296 297 299 306 309 311 317 319 321 322 320 323 321 313 315 325 328 321 320 320 317 316 315 313 313 312 310 312 317 319 317 317 317 315 313 312 312 312 311 311 310 308 307 305 302 301 300 298 296 295 294 295 295 296 298 298 298 298 298 297 297 299 298 298 297 297 297 298 298 298 298 299 299 300 300 301 301 302 303 304 305
297 296 297 291 287 289 283 281 284 272 294 312 318 320 322 321 323 321 312 312 322 324 318 317 317 316 315 314 313 312 311 308 311 317 318 315 315 314 312 311 312 311 311 311 310 310 309 307 306 302 300 299 297 295 294 294 295 295 297 298 298 298 298 297 297 299 300 299 298 298 297 297 297 298 298 298 298 298 299 299 300 300 301 302 303 304
297 295 294 289 286 284 276 268 266 276 300 314 318 321 323 322 321 319 307 309 317 316 313 314 315 315 314 314 313 311 310 308 310 313 314 313 312 311 310 311 312 311 311 310 310 309 308 307 305 302 299 298 296 294 294 294 295 296 297 298 298 298 298 297 298 300 299 298 298 298 297 297 297 297 298 298 298 298 298 298 299 299 300 301 302 303
297 294 289 286 283 279 269 264 273 291 310 321 321 321 322 320 316 310 300 308 313 312 311 312 313 315 315 313 311 311 311 310 308 308 311 312 311 311 312 312 312 311 310 310 309 309 307 305 303 300 298 296 295 294 294 294 295 297 298 299 299 299 297 297 299 300 299 298 298 297 296 297 297 297 298 298 298 298 298 298 298 299 299 300 302 303
295 291 287 286 285 282 276 272 280 298 318 326 322 320 320 316 311 309 309 311 312 312 312 311 310 313 314 312 311 311 311 311 310 309 311 313 312 313 313 312 311 311 310 310 310 310 307 304 302 299 297 295 294 294 294 295 296 297 299 300 300 298 297 299 300 300 299 299 298 296 296 296 297 298 298 298 298 299 299 299 298 298 299 300 301 302
290 285 283 285 288 288 280 274 282 303 319 324 320 317 316 315 315 317 317 316 317 317 316 313 311 312 311 311 312 312 311 312 313 313 313 313 312 312 312 312 312 312 312 311 311 310 307 303 301 299 296 295 294 294 295 295 296 298 300 301 300 298 299 301 301 301 301 299 298 297 296 297 297 298 299 299 299 299 299 299 299 299 300 301 301 302
290 288 287 287 289 285 271 276 296 310 317 320 320 317 317 319 321 322 319 317 319 320 317 315 314 313 312 311 312 313 313 314 314 314 313 312 313 313 313 313 313 313 313 312 311 310 307 302 299 297 295 295 295 295 295 296 298 299 301 301 300 299 301 302 302 302 302 300 298 297 297 298 298 299 299 300 300 300 300 300 299 300 301 301 302 302
293 296 296 293 292 288 284 293 308 317 319 321 321 321 323 324 324 323 320 319 320 321 319 317 316 316 314 313 313 314 314 314 314 314 313 314 314 314 313 314 314 313 312 312 312 312 308 303 299 297 295 295 295 296 297 298 299 301 302 301 301 301 302 303 304 304 302 300 299 298 298 299 299 300 300 300 300 301 301 301 301 301 302 302 302 301
298 301 300 299 299 297 297 307 318 322 323 322 322 323 326 326 325 324 323 322 321 321 320 318 316 316 315 314 314 315 315 315 315 315 315 314 314 314 314 314 314 314 314 314 314 313 309 304 300 298 296 295 297 298 298 299 300 302 302 301 301 302 303 305 305 305 303 301 299 299 299 300 300 300 301 301 301 301 301 301 302 302 302 302 302 301
303 304 302 302 302 298 301 313 322 322 322 323 323 325 327 326 325 325 323 322 320 319 318 317 316 316 316 316 316 316 316 316 316 316 316 315 315 316 316 316 316 315 315 315 314 312 308 304 300 298 297 298 299 300 300 300 302 302 302 302 303 303 305 306 306 305 303 302 300 300 301 301 301 301 302 302 302 302 302 302 302 302 303 303 302 301
303 305 305 306 304 298 301 315 322 321 321 324 324 325 327 325 323 323 322 321 321 320 319 319 318 317 317 317 317 317 317 317 317 316 316 316 316 316 317 316 316 315 314 314 313 310 307 303 300 298 299 300 302 301 301 302 303 303 303 304 304 305 307 307 307 306 304 302 302 302 302 302 302 303 304 304 304 304 303 303 303 303 304 304 303 303
303 306 310 309 304 299 305 319 325 322 321 324 326 326 324 323 322 323 323 322 322 321 321 321 320 318 318 318 318 318 318 318 318 317 316 316 316 316 316 315 315 315 315 314 313 309 305 302 300 300 301 303 303 302 302 303 304 304 304 305 305 307 309 308 308 307 305 304 303 303 303 303 304 305 305 305 306 305 304 304 303 303 305 305 304 303
309 312 315 310 302 301 310 322 326 320 319 324 328 326 324 322 323 324 324 324 322 322 321 321 321 321 321 320 320 319 319 319 319 318 317 317 317 316 316 316 317 317 317 316 313 309 305 302 301 303 304 304 303 302 303 304 305 305 306 306 307 309 310 309 309 308 306 305 305 304 304 305 305 306 307 307 307 306 306 305 304 305 306 306 305 304
316 316 315 307 301 302 312 323 324 319 319 324 327 325 324 324 324 324 324 323 322 322 322 322 322 323 323 322 321 320 320 319 319 318 317 317 317 317 318 320 320 320 319 317 314 309 305 303 304 305 306 304 303 303 304 305 307 307 307 308 310 311 311 311 310 309 308 307 306 305 305 306 307 308 309 309 308 308 307 307 307 307 307 306 306 306
Height
3112 3111 3110 3110 3110 3109 3109 3109 3108 3108 3107 3106 3105 3104 3103 3102 3102 3101 3098 3096 3095 3095 3094 3093 3092 3089 3088 3087 3086 3084 3083 3082 3081 3079 3077 3076 3075 3074 3073 3072 3071 3071 3070 3069 3068 3068 3067 3066 3066 3065 3065 3065 3064 3064 3064 3064 3063 3063 3062 3061 3060 3059 3058 3057 3056 3055 3054 3053 3052 3051 3050 3049 3048 3047 3046 3046 3045 3044 3043 3042 3041 3041 3040 3039 3039 3038
3111 3111 3110 3110 3110 3110 3109 3108 3108 3107 3106 3105 3105 3104 3104 3102 3100 3099 3097 3095 3094 3093 3092 3092 3089 3086 3084 3084 3084 3083 3082 3081 3079 3078 3076 3075 3073 3072 3071 3070 3069 3068 3068 3067 3066 3066 3065 3065 3064 3064 3064 3064 3063 3063 3063 3062 3061 3060 3059 3059 3058 3057 3056 3055 3054 3052 3051 3050 3049 3048 3047 3046 3045 3044 3043 3042 3041 3040 3039 3038 3037 3036 3035 3034 3034 3033
3111 3111 3111 3111 3110 3110 3109 3108 3108 3107 3106 3105 3105 3104 3103 3102 3099 3097 3095 3094 3092 3091 3090 3090 3089 3084 3081 3082 3083 3082 3082 3081 3079 3077 3075 3074 3072 3071 3069 3068 3068 3067 3066 3065 3065 3065 3064 3064 3064 3063 3063 3063 3062 3062 3061 3060 3059 3058 3057 3056 3055 3054 3053 3052 3051 3050 3048 3047 3046 3045 3044 3043 3042 3040 3039 3038 3037 3036 3035 3034 3033 3031 3030 3029 3028 3027
3112 3112 3112 3112 3111 3110 3109 3109 3108 3107 3106 3106 3104 3103 3102 3101 3099 3096 3093 3092 3091 3090 3088 3088 3088 3084 3081 3082 3083 3082 3081 3080 3079 3077 3075 3073 3072 3070 3069 3068 3067 3066 3065 3064 3064 3064 3064 3063 3063 3062 3062 3061 3061 3060 3059 3058 3057 3056 3055 3054 3053 3051 3050 3049 3048 3047 3046 3045 3044 3042 3041 3040 3038 3037 3035 3034 3032 3031 3030 3029 3028 3026 3025 3024 3023 3021
3113 3114 3113 3112 3111 3111 3110 3109 3107 3106 3107 3105 3103 3103 3101 3099 3098 3096 3093 3090 3089 3088 3088 3087 3086 3083 3082 3082 3082 3081 3081 3080 3078 3077 3075 3074 3072 3071 3069 3067 3066 3065 3065 3064 3064 3064 3063 3063 3062 3061 3060 3060 3059 3058 3057 3056 3055 3054 3053 3052 3050 3049 3048 3047 3046 3044 3043 3042 3041 3039 3038 3036 3035 3033 3031 3030 3028 3027 3025 3024 3023 3021 3020 3018 3017 3016
3114 3115 3114 3113 3112 3111 3110 3108 3107 3106 3106 3105 3103 3102 3101 3098 3097 3095 3093 3090 3089 3088 3088 3088 3085 3083 3083 3082 3081 3081 3080 3079 3078 3076 3075 3074 3072 3071 3069 3067 3066 3065 3065 3064 3064 3063 3062 3062 3061 3060 3059 3058 3057 3056 3055 3054 3053 3052 3051 3050 3048 3047 3046 3044 3043 3042 3040 3039 3037 3035 3034 3032 3031 3029 3027 3026 3024 3022 3021 3019 3018 3016 3015 3013 3012 3010
3115 3115 3114 3113 3113 3111 3110 3108 3107 3106 3106 3105 3104 3102 3100 3098 3096 3094 3092 3091 3090 3089 3089 3089 3088 3085 3083 3082 3081 3080 3079 3078 3077 3076 3075 3073 3072 3070 3068 3067 3066 3065 3064 3063 3063 3062 3061 3060 3059 3058 3058 3057 3056 3055 3054 3053 3052 3050 3049 3047 3046 3044 3043 3041 3040 3038 3037 3035 3033 3031 3029 3028 3026 3024 3022 3021 3019 3017 3016 3014 3012 3011 3009 3007 3006 3005
3116 3116 3115 3114 3112 3111 3109 3108 3107 3106 3105 3105 3103 3101 3099 3097 3095 3093 3091 3091 3090 3089 3089 3088 3089 3087 3083 3082 3081 3080 3079 3077 3075 3074 3073 3072 3071 3069 3067 3066 3065 3064 3063 3063 3062 3061 3060 3059 3058 3057 3057 3056 3055 3053 3052 3051 3049 3048 3046 3045 3043 3041 3039 3038 3036 3034 3032 3030 3028 3026 3024 3022 3020 3018 3016 3014 3013 3011 3009 3008 3006 3004 3003 3001 3000 2998
3117 3115 3115 3114 3112 3110 3109 3109 3108 3107 3106 3105 3102 3099 3097 3096 3095 3093 3091 3091 3090 3089 3088 3087 3087 3086 3083 3082 3082 3081 3080 3077 3074 3073 3071 3070 3069 3067 3066 3064 3064 3063 3062 3061 3060 3059 3059 3058 3057 3057 3056 3054 3053 3052 3050 3048 3047 3045 3043 3041 3039 3038 3036 3033 3031 3029 3027 3025 3022 3020 3018 3016 3013 3012 3009 3007 3006 3004 3002 3000 2999 2997 2996 2994 2993 2991
3117 3116 3115 3113 3112 3111 3110 3110 3109 3107 3105 3103 3100 3097 3095 3095 3094 3092 3090 3091 3089 3088 3089 3088 3088 3087 3084 3081 3082 3081 3079 3077 3074 3071 3070 3068 3067 3065 3064 3063 3062 3061 3060 3060 3059 3058 3058 3057 3056 3055 3054 3052 3051 3049 3047 3045 3044 3041 3039 3037 3035 3033 3031 3028 3026 3023 3021 3018 3016 3014 3011 3009 3007 3005 3002 3000 2998 2997 2995 2993 2991 2990 2988 2987 2986 2984
3117 3117 3115 3113 3113 3112 3111 3110 3108 3107 3105 3102 3099 3096 3094 3093 3093 3091 3091 3091 3089 3088 3089 3089 3089 3089 3084 3080 3080 3078 3077 3076 3074 3071 3069 3067 3065 3064 3063 3062 3061 3060 3059 3058 3058 3057 3057 3056 3055 3053 3052 3050 3048 3046 3044 3041 3039 3037 3034 3032 3029 3027 3025 3022 3019 3017 3014 3011 3009 3007 3004 3002 2999 2997 2995 2993 2991 2990 2988 2986 2985 2983 2982 2980 2979 2978
3117 3116 3115 3114 3114 3113 3111 3110 3108 3106 3104 3102 3099 3096 3094 3093 3093 3091 3090 3090 3089 3089 3089 3089 3088 3087 3083 3080 3079 3078 3077 3076 3074 3071 3068 3066 3064 3063 3061 3060 3059 3058 3058 3057 3056 3056 3055 3053 3052 3050 3048 3046 3044 3042 3039 3037 3034 3031 3029 3026 3024 3021 3018 3016 3013 3010 3008 3005 3002 3000 2997 2995 2992 2990 2988 2986 2985 2983 2981 2980 2978 2977 2975 2974 2973 2971
3117 3116 3115 3115 3114 3112 3111 3110 3109 3107 3105 3102 3099 3098 3096 3095 3094 3093 3091 3090 3090 3090 3090 3089 3087 3085 3082 3080 3079 3078 3076 3074 3072 3070 3067 3065 3063 3061 3060 3059 3058 3057 3056 3055 3055 3053 3052 3051 3049 3047 3044 3042 3040 3037 3034 3032 3029 3026 3023 3020 3018 3015 3012 3009 3006 3003 3001 2998 2995 2993 2990 2988 2985 2983 2981 2980 2978 2976 2975 2973 2971 2970 2969 2968 2966 2965
3118 3117 3117 3115 3114 3113 3112 3110 3108 3107 3106 3104 3102 3101 3100 3098 3098 3097 3092 3091 3091 3090 3089 3088 3086 3085 3082 3080 3078 3076 3075 3073 3070 3068 3066 3063 3061 3060 3058 3057 3056 3055 3054 3053 3052 3051 3049 3048 3045 3043 3040 3038 3035 3032 3029 3026 3023 3020 3017 3014 3011 3008 3005 3002 2999 2996 2994 2991 2988 2986 2983 2981 2979 2977 2975 2973 2971 2970 2968 2967 2965 2964 2963 2961 2960 2959
3120 3119 3118 3117 3116 3115 3113 3112 3110 3108 3107 3106 3105 3104 3103 3102 3103 3100 3096 3094 3093 3090 3088 3087 3085 3084 3082 3078 3076 3075 3073 3071 3069 3067 3065 3063 3061 3059 3057 3056 3055 3053 3052 3050 3049 3048 3046 3043 3041 3038 3035 3032 3029 3026 3023 3020 3017 3014 3011 3008 3005 3002 2999 2996 2993 2990 2987 2984 2982 2979 2977 2975 2973 2971 2969 2967 2965 2964 2962 2961 2959 2958 2956 2955 2954 2953
3121 3121 3120 3118 3118 3116 3115 3113 3112 3109 3108 3108 3106 3104 3105 3104 3104 3102 3098 3096 3095 3090 3087 3085 3083 3082 3080 3077 3075 3074 3071 3069 3067 3065 3063 3062 3060 3058 3056 3054 3053 3051 3049 3047 3046 3043 3041 3038 3036 3032 3029 3026 3023 3020 3017 3014 3011 3008 3005 3002 2999 2996 2993 2990 2987 2984 2981 2979 2976 2974 2972 2969 2967 2965 2963 2961 2960 2958 2956 2955 2953 2952 2950 2949 2947 2946
3122 3121 3120 3118 3118 3117 3116 3114 3112 3110 3109 3108 3106 3106 3105 3104 3103 3102 3099 3096 3094 3090 3085 3083 3082 3080 3077 3075 3072 3072 3070 3067 3065 3063 3062 3060 3058 3056 3054 3052 3050 3048 3046 3044 3042 3039 3037 3034 3031 3027 3024 3021 3018 3014 3011 3008 3005 3001 2998 2995 2992 2989 2986 2983 2981 2978 2976 2973 2971 2969 2966 2964 2962 2960 2958 2956 2954 2953 2951 2949 2947 2946 2944 2943 2941 2940
3122 3121 3120 3119 3118 3117 3116 3114 3112 3111 3110 3109 3108 3106 3104 3103 3103 3102 3099 3096 3094 3090 3084 3082 3082 3079 3076 3073 3070 3069 3068 3065 3064 3062 3060 3058 3055 3053 3051 3049 3047 3045 3042 3040 3037 3035 3032 3028 3025 3022 3019 3015 3012 3009 3006 3002 2999 2995 2992 2989 2986 2983 2980 2977 2974 2972 2970 2968 2965 2963 2961 2959 2957 2955 2953 2951 2949 2948 2946 2944 2942 2940 2939 2937 2935 2934
3122 3121 3120 3119 3118 3117 3115 3114 3113 3112 3110 3109 3108 3106 3104 3104 3103 3102 3101 3098 3096 3092 3085 3081 3080 3078 3075 3072 3070 3068 3066 3064 3062 3059 3057 3055 3053 3050 3047 3046 3043 3041 3039 3036 3033 3030 3026 3023 3020 3016 3013 3009 3006 3003 3000 2996 2993 2989 2986 2983 2980 2977 2974 2971 2969 2966 2964 2961 2959 2957 2955 2954 2952 2950 2948 2946 2944 2942 2940 2939 2937 2935 2933 2931 2929 2927
3122 3121 3121 3119 3118 3117 3115 3115 3114 3113 3111 3109 3108 3106 3105 3105 3104 3102 3101 3100 3098 3094 3088 3082 3079 3076 3073 3070 3069 3067 3064 3062 3060 3057 3055 3052 3049 3047 3044 3041 3039 3037 3035 3032 3028 3024 3020 3017 3014 3010 3007 3003 3000 2997 2994 2990 2987 2984 2981 2977 2974 2972 2970 2967 2964 2961 2958 2956 2954 2952 2950 2948 2947 2945 2943 2941 2939 2937 2935 2933 2931 2929 2927 2925 2923 2921
3122 3121 3121 3119 3118 3117 3116 3115 3114 3112 3111 3109 3107 3106 3105 3104 3103 3102 3100 3099 3098 3095 3091 3085 3077 3073 3071 3069 3066 3064 3062 3059 3057 3054 3051 3049 3046 3043 3040 3037 3035 3032 3030 3027 3024 3019 3015 3011 3009 3005 3001 2997 2994 2991 2988 2985 2982 2978 2975 2972 2969 2966 2964 2961 2959 2956 2953 2951 2949 2947 2945 2943 2941 2939 2937 2935 2933 2931 2929 2927 2925 2923 2921 2919 2917 2915
3122 3121 3121 3120 3118 3117 3116 3114 3113 3112 3110 3109 3107 3106 3104 3103 3103 3102 3099 3097 3097 3095 3091 3087 3079 3070 3067 3066 3063 3062 3060 3057 3055 3051 3048 3045 3042 3039 3036 3034 3031 3028 3025 3022 3018 3015 3010 3006 3003 3000 2996 2992 2989 2985 2982 2979 2976 2972 2969 2966 2963 2960 2957 2955 2953 2950 2948 2946 2944 2942 2940 2938 2936 2934 2932 2930 2928 2925 2923 2921 2919 2917 2915 2913 2911 2909
3122 3121 3120 3119 3118 3116 3115 3113 3112 3111 3110 3109 3107 3105 3104 3103 3102 3102 3099 3096 3095 3093 3089 3087 3080 3068 3063 3063 3061 3059 3057 3055 3052 3048 3044 3041 3038 3035 3032 3029 3026 3023 3020 3016 3012 3009 3005 3000 2997 2994 2991 2987 2983 2980 2976 2973 2970 2967 2963 2960 2957 2954 2951 2949 2947 2945 2943 2941 2939 2937 2935 2933 2931 2929 2927 2924 2922 2920 2918 2915 2913 2911 2909 2907 2905 2903
3122 3120 3119 3118 3116 3114 3113 3112 3110 3109 3108 3107 3105 3104 3103 3102 3101 3100 3099 3096 3094 3090 3086 3084 3076 3065 3061 3061 3058 3057 3054 3051 3047 3042 3039 3035 3031 3029 3027 3024 3021 3017 3014 3011 3007 3003 2999 2994 2990 2987 2984 2981 2977 2974 2970 2967 2964 2961 2958 2955 2951 2948 2946 2944 2941 2939 2937 2935 2934 2932 2930 2928 2926 2923 2921 2919 2917 2915 2912 2910 2908 2906 2903 2901 2899 2897
3121 3120 3119 3118 3115 3113 3111 3110 3109 3108 3107 3105 3103 3102 3100 3099 3098 3097 3095 3095 3091 3085 3084 3081 3071 3061 3060 3058 3055 3053 3050 3045 3041 3037 3033 3030 3026 3024 3021 3018 3016 3012 3008 3005 3002 2998 2994 2989 2984 2981 2977 2975 2971 2968 2965 2961 2959 2956 2953 2949 2946 2944 2941 2939 2937 2935 2933 2931 2929 2927 2925 2923 2920 2918 2916 2914 2912 2909 2907 2905 2903 2901 2898 2896 2894 2892
3121 3120 3119 3118 3116 3114 3112 3111 3109 3108 3106 3104 3102 3100 3097 3096 3095 3094 3093 3093 3088 3082 3081 3078 3067 3058 3056 3055 3052 3050 3046 3042 3038 3035 3031 3028 3025 3022 3018 3014 3011 3007 3004 3001 2997 2993 2989 2984 2980 2976 2972 2969 2966 2963 2959 2956 2953 2950 2948 2945 2942 2939 2937 2934 2932 2930 2928 2926 2924 2922 2920 2918 2916 2913 2911 2909 2906 2904 2902 2900 2898 2895 2893 2891 2888 2886
3120 3119 3118 3117 3116 3114 3112 3111 3109 3106 3104 3102 3099 3097 3096 3094 3092 3091 3091 3089 3085 3081 3076 3071 3065 3056 3051 3051 3050 3047 3044 3040 3036 3032 3029 3026 3022 3019 3016 3011 3007 3004 3000 2996 2992 2988 2984 2980 2975 2971 2967 2963 2960 2957 2954 2951 2948 2945 2943 2940 2937 2934 2932 2930 2928 2926 2923 2921 2919 2917 2915 2913 2911 2908 2906 2904 2901 2899 2897 2894 2892 2889 2887 2884 2882 2879
3120 3118 3117 3115 3114 3112 3110 3108 3106 3103 3101 3099 3097 3095 3093 3091 3090 3088 3086 3083 3082 3080 3070 3064 3064 3057 3048 3047 3047 3044 3040 3036 3032 3029 3026 3022 3018 3014 3010 3006 3002 2998 2994 2990 2987 2983 2979 2975 2970 2965 2962 2958 2955 2952 2948 2945 2942 2940 2937 2935 2932 2930 2927 2925 2923 2921 2919 2916 2914 2912 2910 2908 2906 2903 2901 2898 2896 2893 2891 2888 2886 2883 2881 2878 2876 2873
3119 3117 3116 3113 3111 3109 3107 3105 3103 3101 3098 3095 3093 3091 3090 3088 3086 3083 3081 3079 3079 3076 3065 3058 3060 3054 3045 3044 3043 3039 3036 3032 3027 3024 3021 3017 3012 3008 3004 3001 2997 2993 2989 2985 2982 2977 2973 2969 2965 2961 2956 2953 2949 2946 2943 2940 2937 2934 2932 2929 2927 2925 2922 2920 2917 2915 2913 2911 2909 2906 2904 2902 2900 2897 2895 2892 2890 2887 2885 2882 2880 2877 2875 2872 2869 2867
3118 3116 3114 3112 3109 3107 3105 3103 3101 3098 3096 3092 3090 3088 3086 3085 3083 3079 3076 3075 3073 3068 3061 3057 3054 3048 3043 3041 3038 3034 3031 3027 3023 3019 3015 3011 3007 3003 3000 2996 2992 2989 2985 2981 2977 2972 2968 2964 2960 2956 2952 2948 2944 2941 2938 2935 2931 2928 2926 2924 2921 2919 2916 2914 2912 2910 2907 2905 2903 2900 2898 2896 2893 2891 2889 2886 2883 2881 2878 2876 2873 2871 2868 2866 2863 2861
3118 3116 3113 3111 3107 3104 3103 3101 3099 3096 3093 3089 3086 3085 3084 3081 3079 3077 3073 3071 3069 3063 3058 3056 3050 3042 3040 3039 3034 3029 3026 3022 3018 3014 3010 3006 3003 2999 2995 2991 2987 2983 2979 2975 2971 2967 2963 2959 2954 2950 2946 2943 2939 2935 2932 2929 2926 2923 2921 2918 2916 2913 2911 2908 2906 2904 2902 2899 2897 2895 2892 2890 2888 2885 2883 2880 2878 2875 2873 2870 2868 2865 2862 2860 2858 2855
3117 3115 3112 3110 3106 3103 3101 3099 3096 3094 3090 3085 3083 3082 3081 3078 3076 3074 3071 3068 3065 3060 3056 3053 3047 3039 3036 3036 3031 3027 3024 3019 3014 3010 3005 3001 2998 2994 2989 2985 2981 2977 2973 2969 2965 2960 2957 2953 2949 2945 2940 2937 2933 2929 2926 2923 2920 2917 2915 2913 2910 2908 2905 2903 2900 2898 2896 2893 2891 2889 2886 2884 2882 2879 2877 2874 2872 2870 2867 2865 2862 2859 2857 2854 2852 2850
3116 3113 3111 3110 3106 3102 3100 3098 3095 3092 3087 3082 3080 3079 3077 3075 3072 3070 3067 3064 3061 3057 3053 3048 3041 3036 3034 3032 3026 3022 3019 3015 3010 3006 3001 2996 2992 2988 2984 2979 2975 2970 2966 2962 2958 2954 2950 2946 2942 2938 2934 2931 2928 2924 2921 2917 2914 2912 2910 2907 2905 2902 2899 2897 2894 2892 2890 2888 2885 2883 2880 2878 2875 2873 2871 2868 2866 2864 2861 2859 2856 2853 2851 2848 2846 2844
3114 3112 3110 3109 3105 3101 3098 3096 3093 3090 3085 3080 3077 3076 3074 3072 3069 3065 3062 3059 3057 3054 3048 3042 3036 3033 3031 3027 3022 3017 3013 3009 3005 3000 2996 2992 2987 2982 2978 2974 2969 2964 2960 2956 2952 2948 2944 2940 2936 2932 2928 2925 2921 2918 2915 2911 2908 2906 2904 2902 2899 2896 2893 2891 2888 2886 2884 2882 2879 2877 2874 2872 2869 2867 2865 2862 2860 2857 2855 2852 2850 2847 2845 2842 2840 2838
3112 3111 3108 3106 3103 3099 3096 3094 3092 3088 3083 3078 3075 3073 3071 3068 3065 3061 3056 3054 3053 3049 3044 3038 3033 3030 3027 3022 3018 3013 3008 3003 2998 2993 2990 2987 2983 2977 2972 2967 2963 2959 2954 2951 2947 2942 2938 2934 2929 2925 2922 2918 2914 2911 2908 2905 2902 2900 2898 2896 2893 2890 2888 2885 2883 2880 2878 2876 2873 2871 2868 2866 2863 2861 2859 2857 2854 2852 2849 2847 2844 2842 2839 2837 2835 2832
3111 3109 3106 3104 3101 3097 3095 3094 3091 3083 3077 3075 3072 3070 3068 3065 3062 3056 3048 3045 3046 3044 3039 3034 3029 3026 3022 3018 3013 3008 3002 2996 2991 2988 2985 2981 2976 2972 2966 2962 2958 2954 2949 2945 2941 2937 2932 2928 2923 2919 2915 2912 2908 2905 2902 2899 2896 2894 2892 2890 2887 2884 2881 2879 2876 2874 2872 2870 2867 2865 2862 2860 2857 2855 2853 2851 2848 2846 2844 2841 2839 2836 2834 2831 2829 2827
3109 3107 3105 3102 3099 3096 3093 3091 3085 3077 3072 3071 3069 3067 3065 3062 3059 3055 3044 3038 3040 3040 3034 3029 3025 3021 3017 3013 3008 3004 2998 2989 2983 2981 2980 2975 2969 2965 2960 2956 2951 2946 2941 2937 2933 2929 2925 2922 2917 2913 2909 2906 2902 2899 2896 2892 2890 2888 2886 2884 2881 2878 2875 2873 2870 2868 2866 2864 2861 2859 2856 2854 2852 2850 2848 2845 2843 2840 2838 2836 2833 2831 2828 2826 2824 2821
3107 3105 3104 3101 3098 3095 3093 3088 3083 3077 3072 3069 3066 3065 3063 3059 3057 3054 3044 3033 3033 3034 3029 3025 3021 3017 3012 3008 3003 2998 2993 2984 2976 2974 2974 2968 2963 2959 2954 2950 2946 2939 2933 2929 2925 2921 2918 2914 2910 2906 2903 2900 2897 2893 2890 2887 2884 2882 2880 2878 2875 2872 2870 2867 2864 2862 2860 2858 2855 2853 2851 2848 2846 2844 2842 2839 2837 2835 2832 2830 2828 2825 2823 2820 2818 2816
3105 3102 3101 3099 3095 3093 3092 3089 3085 3078 3071 3067 3065 3062 3060 3056 3053 3051 3043 3031 3028 3028 3025 3020 3017 3012 3007 3003 2998 2993 2988 2979 2970 2968 2968 2963 2958 2955 2949 2943 2939 2934 2928 2923 2918 2913 2909 2906 2903 2899 2896 2893 2891 2887 2884 2881 2878 2876 2874 2872 2869 2866 2864 2861 2858 2857 2855 2852 2849 2847 2845 2843 2840 2838 2836 2834 2831 2829 2827 2825 2822 2820 2817 2815 2812 2810
3102 3100 3098 3096 3092 3090 3089 3086 3081 3075 3068 3065 3063 3060 3057 3053 3050 3048 3042 3031 3026 3025 3021 3016 3012 3008 3003 2998 2993 2988 2983 2976 2966 2961 2961 2958 2953 2949 2944 2937 2932 2927 2922 2917 2912 2906 2902 2898 2896 2892 2889 2887 2884 2881 2878 2875 2872 2870 2868 2866 2864 2861 2858 2855 2853 2852 2849 2846 2844 2841 2839 2837 2835 2833 2830 2828 2826 2824 2821 2819 2817 2814 2812 2809 2807 2804
3099 3097 3094 3092 3089 3087 3086 3081 3075 3069 3065 3063 3060 3057 3055 3051 3047 3045 3039 3031 3025 3022 3017 3012 3006 3002 2998 2993 2988 2982 2977 2972 2965 2958 2955 2951 2946 2941 2937 2932 2926 2921 2916 2911 2906 2901 2896 2891 2888 2885 2882 2880 2878 2875 2872 2869 2866 2864 2862 2860 2858 2855 2852 2849 2848 2846 2844 2841 2839 2836 2833 2831 2829 2827 2825 2823 2820 2818 2816 2814 2812 2809 2807 2804 2801 2799
3096 3093 3091 3088 3086 3084 3082 3078 3072 3065 3062 3061 3058 3055 3053 3049 3044 3040 3034 3028 3024 3019 3014 3009 3003 2997 2993 2988 2983 2977 2971 2966 2962 2955 2949 2944 2939 2933 2929 2925 2920 2915 2910 2905 2900 2895 2889 2884 2881 2878 2876 2874 2871 2869 2866 2863 2860 2858 2856 2855 2853 2849 2846 2844 2843 2841 2838 2836 2833 2830 2828 2826 2824 2821 2819 2817 2815 2813 2811 2808 2806 2804 2801 2799 2796 2793
3095 3091 3087 3085 3083 3081 3078 3076 3071 3063 3059 3059 3056 3052 3049 3045 3040 3035 3028 3022 3019 3015 3010 3005 3000 2994 2989 2982 2976 2971 2966 2960 2955 2950 2944 2938 2933 2928 2923 2918 2913 2908 2903 2898 2893 2889 2883 2877 2874 2872 2869 2867 2865 2863 2860 2857 2855 2853 2851 2849 2847 2843 2841 2839 2837 2835 2833 2830 2828 2825 2823 2820 2818 2816 2814 2812 2809 2807 2805 2803 2801 2798 2796 2793 2791 2788
3091 3089 3086 3082 3080 3079 3075 3072 3068 3063 3059 3056 3054 3050 3046 3041 3036 3031 3024 3017 3014 3011 3005 2999 2995 2990 2984 2977 2971 2965 2960 2954 2949 2943 2938 2932 2927 2922 2916 2912 2907 2901 2896 2891 2887 2882 2877 2871 2867 2865 2863 2861 2859 2857 2854 2851 2849 2847 2846 2843 2840 2837 2835 2834 2832 2830 2827 2825 2822 2820 2817 2815 2813 2811 2808 2806 2804 2802 2800 2798 2795 2793 2791 2788 2785 2782
3087 3086 3084 3080 3077 3074 3070 3066 3063 3062 3059 3054 3049 3045 3041 3037 3032 3027 3021 3014 3009 3005 3000 2994 2988 2984 2979 2972 2966 2960 2954 2949 2943 2937 2931 2925 2920 2916 2910 2905 2901 2895 2890 2884 2879 2875 2870 2865 2861 2859 2857 2855 2853 2851 2848 2846 2844 2842 2840 2838 2835 2832 2830 2828 2826 2824 2822 2819 2817 2815 2812 2810 2808 2806 2804 2801 2799 2797 2795 2792 2790 2788 2786 2783 2780 2777
3084 3082 3080 3076 3072 3068 3064 3061 3059 3058 3055 3051 3045 3040 3036 3032 3027 3022 3016 3010 3004 3000 2995 2990 2984 2978 2973 2967 2961 2955 2949 2943 2937 2931 2926 2920 2914 2910 2905 2899 2894 2889 2883 2877 2872 2868 2863 2858 2855 2853 2852 2850 2848 2845 2843 2841 2839 2837 2835 2832 2829 2827 2825 2823 2821 2819 2817 2814 2812 2809 2807 2805 2803 2801 2799 2796 2794 2792 2790 2787 2785 2783 2781 2778 2775 2772
3080 3079 3075 3072 3069 3064 3058 3056 3056 3053 3050 3047 3042 3037 3032 3027 3022 3017 3012 3007 3002 2996 2991 2986 2980 2974 2968 2962 2956 2949 2943 2937 2931 2924 2919 2913 2907 2902 2897 2892 2886 2881 2876 2871 2866 2861 2857 2853 2850 2847 2846 2845 2843 2840 2837 2835 2834 2832 2829 2827 2824 2822 2820 2818 2816 2814 2812 2809 2807 2804 2802 2800 2798 2796 2794 2792 2790 2787 2785 2782 2780 2778 2776 2774 2771 2767
3077 3075 3071 3068 3065 3060 3055 3054 3053 3048 3045 3043 3038 3033 3028 3023 3017 3013 3009 3003 2997 2992 2986 2981 2975 2968 2963 2957 2952 2944 2937 2932 2926 2918 2912 2907 2901 2896 2891 2885 2880 2875 2870 2865 2860 2855 2850 2847 2844 2842 2841 2840 2838 2835 2832 2830 2829 2826 2824 2821 2819 2817 2815 2813 2811 2809 2806 2804 2802 2800 2798 2795 2794 2792 2790 2787 2785 2783 2780 2778 2775 2773 2771 2769 2766 2762
3075 3073 3070 3065 3060 3055 3053 3052 3049 3042 3038 3038 3036 3031 3025 3019 3014 3009 3004 2998 2992 2987 2981 2976 2971 2964 2958 2952 2946 2939 2932 2926 2921 2914 2907 2901 2895 2890 2885 2880 2875 2869 2863 2858 2853 2849 2844 2841 2839 2837 2836 2835 2832 2830 2828 2826 2824 2821 2819 2816 2814 2812 2811 2809 2806 2804 2802 2799 2797 2795 2793 2791 2789 2787 2785 2783 2781 2779 2776 2774 2771 2769 2767 2765 2761 2758
3073 3070 3068 3063 3056 3053 3052 3051 3048 3041 3034 3032 3031 3028 3022 3016 3009 3004 2999 2993 2988 2982 2976 2971 2965 2960 2954 2947 2940 2933 2926 2920 2915 2908 2902 2896 2890 2884 2879 2874 2868 2862 2857 2851 2847 2843 2839 2836 2834 2833 2832 2830 2827 2825 2823 2821 2819 2817 2814 2812 2810 2808 2806 2804 2801 2799 2797 2795 2793 2790 2788 2786 2785 2783 2781 2779 2776 2774 2772 2770 2768 2765 2762 2760 2757 2754
3071 3067 3065 3060 3054 3051 3050 3049 3046 3040 3032 3028 3026 3022 3017 3011 3005 2999 2994 2989 2983 2978 2972 2965 2958 2953 2948 2942 2936 2929 2921 2915 2909 2903 2897 2891 2886 2879 2873 2867 2861 2855 2850 2845 2841 2837 2834 2831 2830 2829 2827 2825 2822 2820 2818 2817 2815 2812 2810 2807 2805 2804 2802 2799 2797 2795 2793 2791 2788 2786 2784 2782 2780 2778 2776 2774 2772 2769 2767 2765 2764 2762 2759 2756 2753 2750